TimeEST,TemperatureF,Dew PointF,Humidity,Sea Level PressureIn,VisibilityMPH,Wind Direction,Wind SpeedMPH,Gust SpeedMPH,PrecipitationIn,Events,Conditions,WindDirDegrees,DateUTC
12:14 AM,52.7,50.9,94,29.88,5.0,North,5.8,-,N/A,Rain,Rain,360,2013-01-13 05:14:00
12:35 AM,52.9,50.9,93,29.85,4.0,NNE,9.2,-,N/A,Rain,Rain,20,2013-01-13 05:35:00
12:55 AM,51.8,49.3,91,29.85,5.0,NNE,11.5,16.1,N/A,Rain,Rain,20,2013-01-13 05:55:00
1:14 AM,49.6,43.2,78,29.83,7.0,North,11.5,20.7,N/A,Rain,Light Rain,10,2013-01-13 06:14:00
1:35 AM,48.4,42.3,79,29.83,5.0,North,11.5,17.3,N/A,Rain,Light Rain,10,2013-01-13 06:35:00
1:54 AM,47.3,42.1,82,29.81,10.0,NNE,10.4,16.1,N/A,Rain,Light Rain,20,2013-01-13 06:54:00
2:14 AM,47.1,41.0,79,29.81,10.0,NNE,9.2,-,N/A,Rain,Rain,20,2013-01-13 07:14:00
2:35 AM,46.4,40.6,80,29.80,10.0,NNE,9.2,-,N/A,Rain,Light Rain,20,2013-01-13 07:35:00
2:54 AM,46.4,40.5,80,29.81,10.0,North,8.1,-,N/A,Rain,Light Rain,10,2013-01-13 07:54:00
3:14 AM,45.9,41.0,83,29.82,7.0,North,8.1,-,N/A,Rain,Light Rain,360,2013-01-13 08:14:00
3:35 AM,44.8,40.8,86,29.82,4.0,NNW,9.2,17.3,N/A,Rain,Light Rain,340,2013-01-13 08:35:00
3:54 AM,44.2,40.5,87,29.80,7.0,NNE,12.7,18.4,N/A,Rain,Rain,20,2013-01-13 08:54:00
4:14 AM,43.7,40.1,87,29.80,7.0,NNE,8.1,16.1,N/A,Rain,Light Rain,20,2013-01-13 09:14:00
4:35 AM,43.2,39.6,87,29.81,7.0,NNW,8.1,16.1,N/A,Rain,Rain,340,2013-01-13 09:35:00
4:54 AM,42.8,39.2,87,29.79,5.0,North,16.1,19.6,N/A,Rain,Light Rain,360,2013-01-13 09:54:00
5:15 AM,42.8,38.5,85,29.80,4.0,NNW,10.4,16.1,N/A,,Overcast,340,2013-01-13 10:15:00
5:35 AM,42.1,38.7,88,29.77,10.0,NNE,9.2,17.3,N/A,Rain,Light Rain,20,2013-01-13 10:35:00
5:54 AM,42.3,39.2,89,29.71,10.0,NE,13.8,20.7,N/A,Rain,Light Rain,50,2013-01-13 10:54:00
6:15 AM,43.0,39.4,87,29.81,10.0,NW,6.9,-,N/A,,Mostly Cloudy,320,2013-01-13 11:15:00
6:35 AM,43.0,39.2,86,29.79,10.0,North,9.2,-,N/A,,Overcast,10,2013-01-13 11:35:00
6:54 AM,42.8,39.2,87,29.80,10.0,North,6.9,-,N/A,,Overcast,360,2013-01-13 11:54:00
7:15 AM,42.4,38.7,86,29.82,10.0,North,6.9,-,N/A,,Overcast,360,2013-01-13 12:15:00
7:34 AM,42.3,38.7,87,29.82,10.0,North,4.6,-,N/A,,Overcast,10,2013-01-13 12:34:00
7:55 AM,42.4,38.7,86,29.85,10.0,NNW,6.9,-,N/A,,Overcast,330,2013-01-13 12:55:00
8:14 AM,42.1,38.3,86,29.83,10.0,NNE,4.6,-,N/A,,Overcast,20,2013-01-13 13:14:00
8:35 AM,42.1,38.3,86,29.85,10.0,North,3.5,-,N/A,,Overcast,10,2013-01-13 13:35:00
8:55 AM,42.3,38.3,86,29.87,10.0,NNW,5.8,-,N/A,,Mostly Cloudy,330,2013-01-13 13:55:00
9:14 AM,42.8,38.3,84,29.86,10.0,Calm,Calm,-,N/A,,Mostly Cloudy,0,2013-01-13 14:14:00
9:35 AM,43.0,38.1,83,29.86,10.0,North,3.5,-,N/A,,Overcast,350,2013-01-13 14:35:00
9:54 AM,43.2,38.3,83,29.87,10.0,Calm,Calm,-,N/A,,Overcast,0,2013-01-13 14:54:00
10:14 AM,43.5,38.1,81,29.87,10.0,Calm,Calm,-,N/A,,Overcast,0,2013-01-13 15:14:00
10:35 AM,43.5,37.9,81,29.87,10.0,Calm,Calm,-,N/A,,Overcast,0,2013-01-13 15:35:00
10:54 AM,43.7,38.5,82,29.88,10.0,West,3.5,-,N/A,,Overcast,260,2013-01-13 15:54:00
11:14 AM,43.9,39.0,83,29.90,10.0,West,9.2,-,N/A,,Overcast,260,2013-01-13 16:14:00
11:35 AM,43.9,39.0,83,29.88,10.0,West,8.1,-,N/A,,Overcast,270,2013-01-13 16:35:00
11:54 AM,43.7,39.0,84,29.89,10.0,WNW,9.2,-,N/A,,Overcast,290,2013-01-13 16:54:00
12:15 PM,43.7,38.8,83,29.89,10.0,WNW,9.2,-,N/A,,Overcast,300,2013-01-13 17:15:00
12:34 PM,43.2,39.2,86,29.88,7.0,WNW,6.9,-,N/A,,Overcast,290,2013-01-13 17:34:00
12:55 PM,43.2,39.2,86,29.83,10.0,North,6.9,-,N/A,,Overcast,350,2013-01-13 17:55:00
1:14 PM,43.3,39.2,85,29.87,10.0,West,3.5,-,N/A,,Overcast,280,2013-01-13 18:14:00
1:34 PM,43.7,39.6,85,29.88,10.0,West,5.8,-,N/A,,Overcast,280,2013-01-13 18:34:00
1:55 PM,43.5,39.7,87,29.89,10.0,West,9.2,-,N/A,,Overcast,280,2013-01-13 18:55:00
2:14 PM,43.5,40.1,88,29.89,7.0,WNW,6.9,-,N/A,,Overcast,300,2013-01-13 19:14:00
2:35 PM,43.0,39.4,87,29.87,10.0,NW,6.9,-,N/A,,Overcast,310,2013-01-13 19:35:00
2:54 PM,43.0,39.0,86,29.86,10.0,NNW,6.9,-,N/A,,Overcast,340,2013-01-13 19:54:00
3:14 PM,42.8,39.0,86,29.86,10.0,North,5.8,-,N/A,,Overcast,10,2013-01-13 20:14:00
3:35 PM,43.3,39.2,85,29.90,10.0,NW,5.8,-,N/A,,Overcast,310,2013-01-13 20:35:00
3:54 PM,43.0,38.8,85,29.91,10.0,NNW,6.9,-,N/A,,Overcast,330,2013-01-13 20:54:00
4:15 PM,42.3,38.7,87,29.93,4.0,NNW,8.1,-,N/A,Rain,Light Rain,330,2013-01-13 21:15:00
4:35 PM,41.9,38.7,88,29.94,1.8,NW,6.9,-,N/A,Rain,Light Rain,320,2013-01-13 21:35:00
4:54 PM,41.2,38.3,89,29.93,2.5,NW,5.8,-,N/A,Rain,Rain,320,2013-01-13 21:54:00
5:15 PM,41.2,38.5,90,29.94,4.0,NW,5.8,-,N/A,Rain,Light Rain,320,2013-01-13 22:15:00
5:34 PM,41.0,38.1,89,29.94,5.0,NW,3.5,-,N/A,Rain,Light Rain,310,2013-01-13 22:34:00
5:54 PM,40.6,37.8,89,29.93,5.0,Calm,Calm,-,N/A,Rain,Light Rain,0,2013-01-13 22:54:00
6:15 PM,40.5,37.4,89,29.92,7.0,Calm,Calm,-,N/A,Rain,Light Rain,0,2013-01-13 23:15:00
6:34 PM,40.6,38.1,91,29.93,7.0,WSW,3.5,-,N/A,Rain,Light Rain,240,2013-01-13 23:34:00
6:54 PM,40.3,37.8,91,29.93,7.0,WSW,3.5,-,N/A,Rain,Light Rain,250,2013-01-13 23:54:00
7:14 PM,40.3,37.8,91,29.93,10.0,WSW,3.5,-,N/A,Rain,Rain,250,2013-01-14 00:14:00
7:34 PM,40.1,37.8,91,29.94,5.0,WSW,4.6,-,N/A,Rain,Light Rain,240,2013-01-14 00:34:00
7:55 PM,40.1,37.8,91,29.92,7.0,West,4.6,-,N/A,Rain,Rain,260,2013-01-14 00:55:00
8:14 PM,40.1,37.8,91,29.94,10.0,West,8.1,-,N/A,,Light Drizzle,270,2013-01-14 01:14:00
8:34 PM,40.1,37.6,91,29.93,5.0,West,10.4,-,N/A,Rain,Rain,270,2013-01-14 01:34:00
8:54 PM,39.2,36.7,91,29.94,4.0,West,11.5,18.4,N/A,Rain,Light Rain,280,2013-01-14 01:54:00
9:14 PM,38.7,36.1,91,29.96,4.0,West,9.2,-,N/A,,Unknown,280,2013-01-14 02:14:00
9:35 PM,38.3,35.6,90,29.97,4.0,West,15.0,18.4,N/A,,Unknown,280,2013-01-14 02:35:00
9:54 PM,37.4,34.7,90,29.97,3.0,West,15.0,20.7,N/A,Snow,Light Snow,280,2013-01-14 02:54:00
10:14 PM,37.4,34.5,89,29.99,5.0,West,8.1,-,N/A,,Overcast,270,2013-01-14 03:14:00
10:35 PM,36.7,33.3,87,29.98,10.0,WNW,10.4,16.1,N/A,,Overcast,290,2013-01-14 03:35:00
10:54 PM,36.5,32.4,85,29.98,10.0,West,10.4,17.3,N/A,,Overcast,270,2013-01-14 03:54:00
11:14 PM,36.5,32.2,84,30.01,10.0,WNW,12.7,18.4,N/A,,Overcast,290,2013-01-14 04:14:00
11:35 PM,35.6,31.1,84,30.02,10.0,West,13.8,24.2,N/A,,Overcast,270,2013-01-14 04:35:00
11:54 PM,35.2,30.7,84,30.03,10.0,West,11.5,-,N/A,,Overcast,270,2013-01-14 04:54:00